Weather in Orto-Balagan

Russia / Sakha (Yakutia) Republic     63°09′47″N   144°01′03″E
temp.,
°C
wind,
m/s
gust,
m/s
humid.,
%
clouds,
%
prec.,
mm/h
press.,
hPa
HPBL,
m
20 april, tue
tue2023:00−8e3281100 0.0 101612
02:00−7ese2283100 0.0 101416
05:00−5e2296100 1.3 101229
08:00−3ene2291100 1.1 1011106
11:00−1ese2486100 1.1 1009277
14:00+1se3599100 0.0 1008207
17:00+1ese4596100 0.0 1008142
20:00−1ese3481100 0.0 100956
21 april, wed
wed2123:00−3e3380100 0.0 101121
02:00−5e2283100 0.0 101116
05:00−7e3286100 0.0 101314
08:00−4ese2385100 0.0 101362
11:00−1ese5985100 0.0 1013792
14:000se101376100 0.1 10121145
17:000se81272100 0.1 1012874
20:00−2ese4678100 0.0 101485
22 april, thu
thu2223:00−5e3380100 0.0 101618
02:00−6ese3284100 0.1 101727
05:00−7se2296100 1.3 101937
08:00−7sse119597 0.6 102195
11:00−6sse118496 0.8 1021442
14:00−4se2284100 0.1 1020579
17:00−3e347497 0.1 1018610
20:00−4ene3280100 0.0 101725
23 april, fri
fri2323:00−8e228595 0.1 101712
02:00−10ese2288100 0.1 101810
05:00−11e1193100 0.1 101710
08:00−8sse1295100 0.3 1015105
11:00−7wsw1191100 1.1 1013292
14:00−6w3391100 0.6 1011420
17:00−5wnw4684100 1.2 1008691
20:00−7wnw5787100 0.3 1009236
24 april, sat
sat2423:00−10wnw4685100 0.3 1010109
02:00−11nw3592100 0.1 101090
05:00−12nw2393100 0.3 101076
08:00−10nw2388100 0.7 1011236
11:00−9nne1358100 0.8 1011823
14:00−7ne1254100 0.1 10101108
17:00−7ene3357100 0.1 10111088
20:00−9e0176100 0.1 101226